Location: Newark
(25.4800°N, 85.7200°E)
Time: 05:45:02
(UTC+00:00)

Vanguard 1 Rocket - Pass Details

Date: 24 August 2019
Orbit: 652 x 4225 km, 34.3° (Epoch: 15 September)

Event Time Altitude Azimuth Distance (km) Brightness Sun altitude
Rises 03:09:29 0° 282° (WNW) 4,461 10.5 42.9°
Reaches altitude 10° 03:12:09 10° 274° (W) 3,828 10.2 43.5°
Maximum altitude 03:21:47 39° 210° (SSW) 3,244 10.5 45.7°
Drops below altitude 10° 03:38:57 10° 150° (SSE) 6,652 12.3 49.5°
Sets 03:45:42 0° 143° (SE) 8,089 12.7 51.0°
